{"data":{"norad_id":67656,"epoch":"2026-09-18T21:16:06.746880Z","epoch_age_seconds":208748,"freshness":"STALE","line1":"1 67656U 26022J   26261.88618920  .00001673  00000+0  54092-4 0  9991","line2":"2 67656  97.2839 293.5327 0000768 130.0860 230.0451 15.33465972 35187","mean_motion":15.33465972,"eccentricity":7.68e-5,"inclination_deg":97.2839,"raan_deg":293.5327,"arg_perigee_deg":130.086,"mean_anomaly_deg":230.0451,"bstar":5.4092e-5,"rev_number":3518,"period_min":93.904920376023,"perigee_km":464.95518742703,"apogee_km":466.00636711762,"semimajor_km":6843.6177772723,"source":"CELESTRAK","updated_at":"2026-09-20T09:00:43.620405Z"}}